N3FYI-5 Weather Reports


Display with metric or nautical units.
time (UTC)temp
F
wind
direction
speed
MPH
gust
MPH
rain 1hr
in
rain 24hr
in
rain mn
in
humidity
%
barometer
mb
20260504034526 44 0 0.0 1.0 0.00 0.00 0.00 60 1021.7
20260504033738 44 0 0.0 1.0 0.00 0.00 0.00 59 1021.7
20260504032926 45 0 0.0 0.0 0.00 0.00 0.00 58 1021.7
20260504032129 45 0 0.0 1.0 0.00 0.00 0.00 57 1021.7
20260504031327 45 239 1.0 6.0 0.00 0.00 0.00 57 1021.8
20260504030527 45 0 0.0 0.0 0.00 0.00 0.00 57 1021.8
20260504025729 46 0 0.0 2.0 0.00 0.00 0.00 56 1021.8
20260504024930 46 249 1.0 6.0 0.00 0.00 0.00 56 1021.8
20260504024135 46 0 0.0 3.0 0.00 0.00 0.00 56 1021.8
20260504023327 46 0 0.0 3.0 0.00 0.00 0.00 56 1021.9
20260504022526 46 0 0.0 2.0 0.00 0.00 0.00 56 1021.9
20260504021745 46 0 0.0 3.0 0.00 0.00 0.00 55 1021.9
20260504020926 46 0 0.0 2.0 0.00 0.00 0.00 55 1021.9
20260504015901 46 0 0.0 2.0 0.00 0.00 0.00 55 1021.9
20260504015101 46 0 0.0 0.0 0.00 0.00 0.00 54 1021.9
20260504014304 46 0 0.0 4.0 0.00 0.00 0.00 54 1021.8
20260504013503 46 0 0.0 1.0 0.00 0.00 0.00 53 1021.7
20260504012702 47 0 0.0 3.0 0.00 0.00 0.00 53 1021.7
20260504011901 47 0 0.0 1.0 0.00 0.00 0.00 52 1021.7
20260504011101 47 0 0.0 2.0 0.00 0.00 0.00 52 1021.8
20260504010301 47 0 0.0 2.0 0.00 0.00 0.00 51 1021.8
20260504005502 48 0 0.0 4.0 0.00 0.00 0.00 51 1021.8
20260504004701 47 0 0.0 1.0 0.00 0.00 0.00 50 1021.8
20260504003901 48 0 0.0 2.0 0.00 0.00 0.00 50 1021.7
20260504003101 48 0 0.0 3.0 0.00 0.00 0.00 49 1021.6
20260504002301 49 0 0.0 4.0 0.00 0.00 0.00 49 1021.6
20260504001501 49 0 0.0 0.0 0.00 0.00 0.00 48 1021.6
20260504000701 49 0 0.0 2.0 0.00 0.00 0.00 48 1021.6
20260503235901 49 0 0.0 5.0 0.00 0.00 0.00 47 1021.5
20260503235102 50 0 0.0 6.0 0.00 0.00 0.00 47 1021.5
20260503234301 50 0 0.0 8.0 0.00 0.00 0.00 46 1021.5
20260503233501 50 0 0.0 7.0 0.00 0.00 0.00 46 1021.5
20260503232701 50 226 2.0 6.0 0.00 0.00 0.00 45 1021.5
20260503231901 51 0 0.0 3.0 0.00 0.00 0.00 45 1021.4
20260503231101 51 0 0.0 4.0 0.00 0.00 0.00 43 1021.4
20260503230303 51 223 1.0 5.0 0.00 0.00 0.00 44 1021.4
20260503225501 52 0 0.0 3.0 0.00 0.00 0.00 44 1021.4
20260503224701 52 251 1.0 5.0 0.00 0.00 0.00 43 1021.4
20260503223901 52 0 0.0 6.0 0.00 0.00 0.00 43 1021.5
20260503223101 52 0 0.0 4.0 0.00 0.00 0.00 42 1021.4
20260503222308 53 249 3.0 8.0 0.00 0.00 0.00 40 1021.5
20260503221501 53 0 0.0 3.0 0.00 0.00 0.00 42 1021.5
20260503220701 53 268 1.0 8.0 0.00 0.00 0.00 41 1021.5
20260503215901 53 0 0.0 7.0 0.00 0.00 0.00 42 1021.4
20260503215102 54 285 2.0 5.0 0.00 0.00 0.00 41 1021.5
20260503214301 53 269 1.0 3.0 0.00 0.00 0.00 42 1021.4
20260503213502 53 0 0.0 2.0 0.00 0.00 0.00 42 1021.5
20260503212701 53 0 0.0 6.0 0.00 0.00 0.00 42 1021.3
20260503211901 52 297 1.0 6.0 0.00 0.00 0.00 42 1021.4
20260503211101 52 0 0.0 4.0 0.00 0.00 0.00 43 1021.4
20260503210304 52 0 0.0 4.0 0.00 0.00 0.00 42 1021.4
20260503205500 52 0 0.0 6.0 0.00 0.00 0.00 42 1021.4
20260503204702 53 0 0.0 10.0 0.00 0.00 0.00 42 1021.4
20260503203903 53 175 1.0 6.0 0.00 0.00 0.00 43 1021.5
20260503202758 53 291 2.0 5.0 0.00 0.00 0.00 41 1021.7
20260503202000 54 0 0.0 7.0 0.00 0.00 0.00 39 1021.7
20260503201158 54 0 0.0 9.0 0.00 0.00 0.00 40 1021.7
20260503200358 54 0 0.0 12.0 0.00 0.00 0.00 40 1021.8
20260503195558 54 0 0.0 3.0 0.00 0.00 0.00 40 1022.0
20260503194758 54 0 0.0 3.0 0.00 0.00 0.00 42 1022.1
20260503193958 53 264 1.0 6.0 0.00 0.00 0.00 42 1022.2
20260503193158 53 260 1.0 5.0 0.00 0.00 0.00 41 1022.2
20260503192359 53 0 0.0 5.0 0.00 0.00 0.00 41 1022.2
20260503191559 53 334 2.0 5.0 0.00 0.00 0.00 41 1022.5
20260503190000 51 283 4.0 7.0 0.00 0.00 0.00 45 1022.9
20260503185159 51 245 2.0 8.0 0.00 0.00 0.00 45 1022.9
20260503184357 51 0 0.0 10.0 0.00 0.00 0.00 46 1023.0
20260503183557 51 0 0.0 6.0 0.00 0.00 0.00 44 1023.0
20260503182757 52 242 2.0 9.0 0.00 0.00 0.00 42 1023.1
20260503181957 54 0 0.0 9.0 0.00 0.00 0.00 41 1023.0
20260503181157 54 286 3.0 5.0 0.00 0.00 0.00 42 1023.0
20260503180358 53 265 2.0 5.0 0.00 0.00 0.00 42 1023.0
20260503175558 52 246 1.0 4.0 0.00 0.00 0.00 45 1023.1
20260503174758 52 0 0.0 7.0 0.00 0.00 0.00 41 1023.2
20260503173959 53 263 1.0 6.0 0.00 0.00 0.00 42 1023.3
20260503173158 53 218 1.0 14.0 0.00 0.00 0.00 42 1023.4
20260503172358 52 0 0.0 10.0 0.00 0.00 0.00 45 1023.3
20260503171558 50 352 1.0 5.0 0.00 0.00 0.00 44 1023.4
20260503170758 50 0 0.0 4.0 0.00 0.00 0.00 44 1023.4
20260503150758 46 44 2.0 9.0 0.00 0.00 0.00 48 1024.4
20260503131113 39 0 0.0 4.0 0.00 0.00 0.00 64 1024.8
20260503130314 39 274 1.0 3.0 0.00 0.00 0.00 68 1024.9
20260503110314 30 0 0.0 1.0 0.00 0.00 0.00 87 1024.7
20260503090312 31 0 0.0 1.0 0.00 0.00 0.00 87 1024.0
20260503081512 31 0 0.0 0.0 0.00 0.00 0.00 86 1023.8
20260503080712 31 0 0.0 0.0 0.00 0.00 0.00 85 1023.7
20260503072712 32 0 0.0 1.0 0.00 0.00 0.00 85 1023.5
20260503071912 32 0 0.0 0.0 0.00 0.00 0.00 85 1023.5
20260503071112 32 0 0.0 0.0 0.00 0.00 0.00 85 1023.6
20260503070315 32 0 0.0 0.0 0.00 0.00 0.00 84 1023.5
20260503060107 31 0 0.0 0.0 0.00 0.00 0.00 84 1023.8
20260503054507 31 0 0.0 0.0 0.00 0.00 0.00 84 1023.8
20260503053707 31 0 0.0 0.0 0.00 0.00 0.00 83 1023.8
20260503052916 31 0 0.0 0.0 0.00 0.00 0.00 82 1023.9
20260503052107 32 0 0.0 0.0 0.00 0.00 0.00 81 1024.0
20260503051307 32 0 0.0 0.0 0.00 0.00 0.00 80 1024.0
20260503050507 33 0 0.0 1.0 0.00 0.00 0.00 80 1024.1
20260503045706 33 0 0.0 0.0 0.00 0.00 0.00 80 1024.2
20260503044907 33 0 0.0 2.0 0.00 0.00 0.00 80 1024.2
20260503044107 33 0 0.0 0.0 0.00 0.00 0.00 80 1024.2
20260503043307 33 0 0.0 0.0 0.00 0.00 0.00 81 1024.3
20260503042511 33 0 0.0 0.0 0.00 0.00 0.00 80 1024.3
20260503041707 33 0 0.0 0.0 0.00 0.00 0.00 80 1024.4
20260503040907 33 0 0.0 0.0 0.00 0.00 0.00 80 1024.5
20260503040107 33 0 0.0 0.0 0.00 0.00 0.00 80 1024.5
20260503035307 33 0 0.0 0.0 0.00 0.00 0.00 79 1024.5